Airfield :
LOGIN :

Register | Disclaimer

   EN    FR    IT 

 










Legend :    VFR   Marginal VFR   IFR   Intensive IFR   Very Intensive IFR
Visi :
Ceiling :
>= 8 km
>= 3000ft
5 to 8 km
1000 to 3000 ft
1500m to 5 km
500 to 1000 ft
800 to 1500m
200 to 500 ft
< 800m
< 200 ft
Symbols :   Thunderstorms  Fog  Heavy snow  Heavy precipitations  Wind > 20 kt
SIGMETs :     Misc.  Thunderstorms  Icing  Turbulence  Mountain Waves  Volcanic Ashes






- Airport Elevation : 2936 ft


LECH - Calamocha

CURRENT METAR :
  • 231630Z AUTO 12005KT 100V170 CAVOK 17/09 Q1021

EXPIRED METARs :
  • 231600Z AUTO 11006KT 070V140 CAVOK 17/09 Q1021
  • 231530Z AUTO 11007KT 070V150 CAVOK 17/08 Q1021
  • 231500Z AUTO 11008KT 080V140 CAVOK 17/08 Q1021
  • 231430Z AUTO 12009KT 060V150 CAVOK 18/07 Q1021

Expired Forecast.



MET'MAP, your aeronautical weather chart ! - Copyright ORBIFLY December 2007 - Disclaimer

ORBIFLY MET'MAP TEAM :

Programming & Development : Alexandra Zaïnal
Concept & original design : Baudouin d'Aumeries
Assistance for programming : Marc-Olivier Méhu
Technical & hardware support : Manuel Goepfert

Contact : metmap@orbifly.com




SOURCES & CREDITS :

   NOAA